Overview Statistics Trail Chart Weather Telemetry Raw packets
 

This is the latest recevied weather packets stored in our database for station/object K5FEP. If no packets are shown the sender has not sent any weather packets the latest 10 day(s).

<< 3 4 5 6 7 8 9 >>
Time Temp. Humidity Pressure Rain* Wind** Luminosity Snow
1788616202 30° C 63% 1011.7 hPa 0 mm - 485 W/m² -
1788615901 30° C 62% 1011.7 hPa 0 mm - 467 W/m² -
1788615600 30° C 63% 1011.5 hPa 0 mm - 449 W/m² -
1788615296 29.44° C 63% 1011.6 hPa 0 mm - 431 W/m² -
1788614995 28.89° C 65% 1011.4 hPa 0 mm - 410 W/m² -
1788614691 28.89° C 66% 1011.6 hPa 0 mm - 392 W/m² -
1788614385 28.33° C 66% 1011.5 hPa 0 mm - 372 W/m² -
1788614081 28.33° C 68% 1011.6 hPa 0 mm - 350 W/m² -
1788613776 27.78° C 69% 1011.7 hPa 0 mm - 330 W/m² -
1788613475 27.22° C 70% 1011.7 hPa 0 mm - 310 W/m² -
1788613175 27.22° C 73% 1011.6 hPa 0 mm - 292 W/m² -
1788612870 26.67° C 77% 1011.7 hPa 0 mm - 271 W/m² -
1788612565 26.11° C 80% 1011.7 hPa 0 mm - 252 W/m² -
1788612262 26.11° C 77% 1011.7 hPa 0 mm - 233 W/m² -
1788611962 25.56° C 79% 1011.9 hPa 0 mm - 215 W/m² -
1788611659 24.44° C 82% 1011.9 hPa 0 mm - 140 W/m² -
1788611354 23.89° C 85% 1011.7 hPa 0 mm - 88 W/m² -
1788611053 23.33° C 87% 1011.6 hPa 0 mm - 55 W/m² -
1788610749 23.33° C 88% 1011.3 hPa 0 mm - 65 W/m² -
1788610444 22.78° C 88% 1011.4 hPa 0 mm - 50 W/m² -
1788610144 22.22° C 90% 1011.5 hPa 0 mm - 47 W/m² -
1788609844 21.67° C 92% 1011.7 hPa 0 mm - 65 W/m² -
1788609539 21.67° C 94% 1011.6 hPa 0 mm - 54 W/m² -
1788609238 21.11° C 94% 1011.3 hPa 0 mm - 47 W/m² -
1788608933 21.11° C 95% 1011 hPa 0 mm - 57 W/m² -

* Rain latest hour (hover to see other rain measurements)
** Current wind speed in m/s (hover to see current wind gust speed)